This is the latest recevied weather packets stored in our database for station/object IZ5TJI-3. If no packets are shown the sender has not sent any weather packets the latest 10 day(s).
| Time | Temp. | Humidity | Pressure | Rain* | Wind** | Luminosity | Snow |
|---|---|---|---|---|---|---|---|
| 1777820420 | 22.78° C | 40% | 1016.6 hPa | 0 mm | - | - | - |
| 1777819520 | 22.78° C | 34% | 1016.8 hPa | 0 mm | - | - | - |
| 1777818653 | 22.78° C | 36% | 1017 hPa | 0 mm | - | - | - |
| 1777818620 | 22.78° C | 36% | 1017 hPa | 0 mm | - | - | - |
| 1777817720 | 22.78° C | 35% | 1017.3 hPa | 0 mm | - | - | - |
| 1777816820 | 22.78° C | 39% | 1017.6 hPa | 0 mm | - | - | - |
| 1777815920 | 22.78° C | 39% | 1017.8 hPa | 0 mm | - | - | - |
| 1777815020 | 22.22° C | 41% | 1018.1 hPa | 0 mm | - | - | - |
| 1777814120 | 22.22° C | 43% | 1018.3 hPa | 0 mm | - | - | - |
| 1777813220 | 22.22° C | 46% | 1018.5 hPa | 0 mm | - | - | - |
| 1777812320 | 21.67° C | 51% | 1018.6 hPa | 0 mm | - | - | - |
| 1777811420 | 21.11° C | 52% | 1018.6 hPa | 0 mm | - | - | - |
| 1777810520 | 21.67° C | 52% | 1018.6 hPa | 0 mm | - | - | - |
| 1777809620 | 21.67° C | 46% | 1018.7 hPa | 0 mm | - | - | - |
| 1777808720 | 21.67° C | 45% | 1018.6 hPa | 0 mm | - | - | - |
| 1777807820 | 21.67° C | 42% | 1018.5 hPa | 0 mm | - | - | - |
| 1777806920 | 22.22° C | 39% | 1018.6 hPa | 0 mm | - | - | - |
| 1777806020 | 21.67° C | 41% | 1018.7 hPa | 0 mm | - | - | - |
| 1777805120 | 21.11° C | 39% | 1018.8 hPa | 0 mm | - | - | - |
| 1777804220 | 21.11° C | 42% | 1018.8 hPa | 0 mm | - | - | - |
| 1777803320 | 21.11° C | 46% | 1018.9 hPa | 0 mm | - | - | - |
| 1777802420 | 21.11° C | 46% | 1019.1 hPa | 0 mm | - | - | - |
| 1777801520 | 21.11° C | 49% | 1019.1 hPa | 0 mm | - | - | - |
| 1777800620 | 20.56° C | 52% | 1019.2 hPa | 0 mm | - | - | - |
| 1777799720 | 21.11° C | 52% | 1019.2 hPa | 0 mm | - | - | - |
* Rain latest hour (hover to see other rain measurements)
** Current wind speed in m/s (hover to see current wind gust speed)